Regional Weather Roundup
Issued by NWS Charleston, SC

Home | Current Version | Previous Version | Text Only | Print | Product List | Glossary On
Versions: 1 2 3 4 5 6 7 8 9 10 11 12 13 14 15 16 17 18 19 20 21 22 23 24 25 26 27 28 29 30 31 32 33 34 35 36 37 38 39 40 41 42 43 44 45 46 47 48 49 50
000
ASUS42 KCHS 031527
RWRCHS

REGIONAL WEATHER ROUNDUP
NATIONAL WEATHER SERVICE CHARLESTON SC
1100 AM EDT MON AUG 03 2015

NOTE: "FAIR" INDICATES FEW OR NO CLOUDS BELOW 12,000 FEET WITH NO
SIGNIFICANT WEATHER AND/OR OBSTRUCTIONS TO VISIBILITY.

NOT ALL STATIONS ARE QUALITY CONTROLLED BY THE NATIONAL
WEATHER SERVICE. USE DATA WITH CAUTION...ESPECIALLY
DEWPOINT OBSERVATIONS.

SCZ027-030-031-034>040-042>050-031600-
...SOUTHEAST SOUTH CAROLINA...

CITY           SKY/WX    TMP DP  RH WIND       PRES   REMARKS
N CHARLESTON   PTSUNNY   85  72  65 S13       29.94S HX  91
WATERFRONT PRK   N/A     83  75  76 S9        29.92R HX  90
MOUNT PLEASANT FAIR      88  75  66 S12G17    29.95S HX  97
JOHNS ISLAND   FAIR      86  77  74 S13       29.94F HX  97
PINOPOLIS      NOT AVBL
MONCKS CORNER  FAIR      84  73  70 SW6       29.95R HX  91
SUMMERVILLE    CLOUDY    81  77  89 CALM      29.95S
BEAUFORT MCAS  PTSUNNY   86  75  69 S6        29.93R HX  95
BEAUFORT ARPT  FAIR      82  73  74 S6        29.93S
HILTON HEAD IS PTSUNNY   82  72  69 S9G16     29.94S
WALTERBORO     MOSUNNY   82  77  83 CALM      29.95F HX  91
ALLENDALE      CLOUDY    81  75  83 S7        29.93S

...SOUTHERN MIDLANDS AND PEE DEE...

CITY           SKY/WX    TMP DP  RH WIND       PRES   REMARKS
GEORGETOWN     NOT AVBL
KINGSTREE      NOT AVBL
ORANGEBURG     LGT RAIN  78  72  81 CALM      29.96S
BARNWELL       RAIN      77  75  94 N7        29.96F
AIKEN          PTSUNNY   81  70  69 SE3       29.99S
MANNING        RAIN      77  73  88 CALM      29.96S
COLUMBIA       MOSUNNY   85  70  60 CALM      29.95R
SUMTER         PTSUNNY   84  71  65 VRB5      29.94R
FLORENCE       PTSUNNY   83  73  72 SW7       29.96R
MYRTLE BEACH   PTSUNNY   86  72  62 SW14      29.97S HX  92
N MYRTLE BEACH PTSUNNY   85  72  65 SW14G22   29.96R HX  91

$$

GAZ063-065-086>088-099>101-113>116-118-119-134>141-150-031600-
...SOUTHEAST GEORGIA...

CITY           SKY/WX    TMP DP  RH WIND       PRES   REMARKS
SAVANNAH ARPT  PTSUNNY   81  73  78 SE14      29.92R
HUNTER AAF     LGT RAIN  81  77  89 S9        29.91R
FORT STEWART   PTSUNNY   84  73  70 SE7       29.88R HX  91
STATESBORO     PTSUNNY   80  80 100 CALM      29.92F
SYLVANIA       PTSUNNY   82  78  87 CALM      29.94S HX  91
CLAXTON        NOT AVBL

...CSRA...CENTRAL AND FAR SOUTHEAST GEORGIA...

CITY           SKY/WX    TMP DP  RH WIND       PRES   REMARKS
THOMSON        SUNNY     84  75  75 CALM      29.99S HX  92
AUGUSTA-BUSH   PTSUNNY   82  73  74 N5        29.94R
AUGUSTA-DANIEL CLOUDY    81  72  74 N5        29.96S
SWAINSBORO     CLOUDY    86  77  74 CALM      29.94S HX  97
VIDALIA        CLOUDY    81  73  78 E3        29.93S
EASTMAN        CLOUDY    82  78  85 NE5       29.95S HX  91
HAZLEHURST     CLOUDY    81  76  84 NE3       29.91F
ALMA           CLOUDY    79  74  84 CALM      29.90S
WAYCROSS       RAIN      80  78  92 NE3       29.91R
JESUP          CLOUDY    82  77  83 SE5       29.91R HX  91
BAXLEY         CLOUDY    81  73  78 E3        29.91S
BRUNSWICK      CLOUDY    81  75  83 S12       29.91S
SAINT SIMONS   CLOUDY    80  74  81 SE13G21   29.90R

$$

SCZ027-028-034-036>038-045-046-048>050-GAZ119-141-031600-
...LAKE AND SUPPLEMENTAL COASTAL OBSERVATIONS...

STATION/POSITION TIME  TEMP    WIND        PRES    WAVE   SWELL
                       AIR SEA DIR/SP/G            HT/PER HT/PER/DIR
                 (UTC) (F)     (DEG/KT/KT) (MB)    (FT/S) (FT/S/D)
UPR LAKE MARION  NOT AVBL
WINYAH BAY       1400   82     230/  5     1013.0S
LAKE MURRAY      1400   82     190/  4/  6 1013.5F
ACE BASIN NERRS  1400   83     160/  1     1014.0S
FORT PULASKI     1500   82 85  140/  6/ 11 1013.8R
SAPELO ISLAND    1500   79     150/  9     1013.0S

$$

ANZ835-935-AMZ111-154-330-350-352-354-370-450-454-472-031600-
...C-MAN AND BUOY OBSERVATIONS...

STATION/POSITION TIME  TEMP    WIND        PRES    WAVE   SWELL
                       AIR SEA DIR/SP/G            HT/PER HT/PER/DIR
                 (UTC) (F)     (DEG/KT/KT) (MB)    (FT/S) (FT/S/D)
BUOY 41004       1450   82 83  180/ 16/ 17 1013.6R   4/ 6   2/ 7
BUOY 41008       1450   81 83  170/ 16/ 19 1012.7S   5/ 5   2/120/12
FOLLY BEACH CMAN 1500   83     190/  9/ 11 1014.2R
CAPERS NEARSHORE 1408   82     210/ 10/ 14 1013.9F
FRIPP NEARSHORE  1400   84     190/ 14/ 16 1013.1R


STATION/POSITION TIME  TEMP    WIND        PRES    WAVE   SWELL
                       AIR SEA DIR/SP/G            HT/PER HT/PER/DIR
                 (UTC) (F)     (DEG/KT/KT) (MB)    (FT/S) (FT/S/D)
5E ST. MARYS GA  1421      82                N/A     5/ 5   2/100/11
FRYING PAN BUOY  1450   82 83  190/ 23/ 29 1015.3R   5/ 7   2/150/11
BUOY 41025       1450   74 84   10/ 10/ 14 1015.6S   4/ 7   3/210/ 7
CAPE LOOKOUT NC  1500   74     180/ 13/ 15 1015.4R
BUOY 41002       1450   83 81  190/ 14/ 16 1017.7R   5/ 6   2/100/11
BUOY 41010       1420   83 84  170/ 16/ 17 1015.3S
ST AUGUSTINE FL  1500   76 78  190/ 12/ 16 1013.1R


$$



USA.gov is the U.S. government's official web portal to all federal, state and local government web resources and services.